This demonstration page uses our WeatherBlox Daily Observations layout. Learn more.

Left ArrowRight Arrow

39.95238, -75.16362

Hourly Observations for June 10, 2022

Temp ( °F °C ) Dew Point ( °F °C ) Humidity (%) Winds ( mph kmh ) Pressure ( in mb ) Visibility ( mi km ) Precip ( " mm )
12:54 am 00:54 Mostly Clear 68 20 51 10.6 55 55 NW 8 13 29.84 1010 10 16 0.00 0.00
1:54 am 01:54 Clear 67 19.4 52 11.1 59 59 NW 7 11 29.84 1011 10 16 0.00 0.00
2:54 am 02:54 Clear 67 19.4 51 10.6 57 57 W 6 9 29.84 1010 10 16 0.00 0.00
3:54 am 03:54 Clear 66 18.9 51 10.6 59 59 WNW 9 15 29.84 1011 10 16 0.00 0.00
4:54 am 04:54 Clear 64 17.8 51 10.6 63 63 SW 6 9 29.85 1011 10 16 0.00 0.00
5:54 am 05:54 Mostly Sunny 64 17.8 51 10.6 63 63 W 7 11 29.85 1011 10 16 0.00 0.00
6:54 am 06:54 Mostly Sunny 65 18.3 51 10.6 61 61 W 7 11 29.86 1011 10 16 0.00 0.00
7:54 am 07:54 Mostly Sunny 69 20.6 51 10.6 53 53 W 7 11 29.88 1012 10 16 0.00 0.00
8:54 am 08:54 Mostly Sunny 71 21.7 51 10.6 49 49 WNW 10 17 29.89 1012 10 16 0.00 0.00
9:54 am 09:54 Mostly Sunny 73 22.8 50 10 44 44 WNW 9 15 29.89 1012 10 16 0.00 0.00
10:54 am 10:54 Mostly Cloudy 75 23.9 49 9.4 40 40 W 9 15 29.90 1013 10 16 0.00 0.00
11:54 am 11:54 Mostly Cloudy 76 24.4 49 9.4 39 39 NNW 3 6 29.90 1012 10 16 0.00 0.00
12:54 pm 12:54 Partly Cloudy 78 25.6 48 8.9 35 35 NW 13 20 29.88 1012 10 16 0.00 0.00
1:54 pm 13:54 Partly Cloudy 79 26.1 48 8.9 34 34 W 12 19 29.87 1012 10 16 0.00 0.00
2:54 pm 14:54 Mostly Cloudy 81 27.2 48 8.9 32 32 W 14 22 29.86 1011 10 16 0.00 0.00
3:54 pm 15:54 Mostly Cloudy 80 26.7 49 9.4 34 34 W 13 20 29.85 1011 10 16 0.00 0.00
4:54 pm 16:54 Mostly Cloudy 80 26.7 48 8.9 33 33 WNW 12 19 29.85 1011 10 16 0.00 0.00
5:54 pm 17:54 Mostly Cloudy 81 27.2 48 8.9 32 32 W 12 19 29.86 1011 10 16 0.00 0.00
6:54 pm 18:54 Mostly Cloudy 80 26.7 47 8.3 31 31 WNW 10 17 29.86 1011 10 16 0.00 0.00
7:54 pm 19:54 Mostly Cloudy 78 25.6 48 8.9 35 35 NW 6 9 29.87 1012 10 16 0.00 0.00
8:54 pm 20:54 Mostly Cloudy 78 25.6 48 8.9 35 35 NW 5 7 29.88 1012 10 16 0.00 0.00
9:54 pm 21:54 Mostly Cloudy 78 25.6 48 8.9 35 35 WNW 3 6 29.90 1012 10 16 0.00 0.00
10:54 pm 22:54 Mostly Cloudy 73 22.8 56 13.3 55 55 S 8 13 29.91 1013 10 16 0.00 0.00
11:54 pm 23:54 Mostly Cloudy 72 22.2 60 15.6 66 66 SSW 8 13 29.92 1013 10 16 0.00 0.00

Powered by AerisWeather